Skip Page Navigation
NASA JPL Caltech
NASA Logo - Jet Propulsion Laboratory + View the NASA Portal
+ Center for Near-Earth Object Studies
JPL Home Earth Solar System Stars & Galaxies Technology
JPL Solar System Dynamics
BODIES ORBITS EPHEMERIDES TOOLS PHYSICAL DATA DISCOVERY FAQ SITE MAP
IMPORTANT: The SSD Announcement email list is now available. Major changes are coming in the near future, including possible hostname and/or URL changes. To be notified of such changes, subscribe to this email list.

Please visit this page for more details.


JPL Small-Body Database Browser
Search: [ help ]  
523875 (1996 EE6)
Classification: Main-belt Asteroid          SPK-ID: 2523875
Ephemeris | Orbit Diagram | Orbital Elements | Mission Design | Physical Parameters | Discovery Circumstances ]

[ show orbit diagram ]
Orbital Elements at Epoch 2458600.5 (2019-Apr-27.0) TDB
Reference: JPL 3 (heliocentric ecliptic J2000)
 Element Value Uncertainty (1-sigma)   Units 
e .05966856678950264 7.8919e-08  
a 2.812209599500342 3.8074e-08 au
q 2.644409083186475 2.284e-07 au
i 4.813133330770456 9.6405e-06 deg
node 174.1022034255098 8.932e-05 deg
peri 65.82429672955597 0.0001264 deg
M 261.2193099886019 9.5093e-05 deg
tp 2459073.149835600559
(2020-Aug-11.64983560)
0.00045965 TDB
period 1722.542541427556
4.72
3.4982e-05
9.578e-08
d
yr
n .2089933870089793 4.2443e-09 deg/d
Q 2.980010115814209 4.0346e-08 au
  Orbit Determination Parameters
   # obs. used (total)      102  
   data-arc span      8357 days (22.88 yr)  
   first obs. used      1996-03-11  
   last obs. used      2019-01-27  
   planetary ephem.      DE431  
   SB-pert. ephem.      SB431-N16  
   condition code      0  
   norm. resid. RMS      .66923  
   source      ORB  
   producer      Otto Matic  
   solution date      2019-May-30 10:46:43  

Additional Information
 Earth MOID = 1.63676 au 
 Jupiter MOID = 2.013 au 
 T_jup = 3.313 
[ show covariance matrix ]

Ephemeris | Orbit Diagram | Orbital Elements | Mission Design | Physical Parameters | Discovery Circumstances ]

Physical Parameter Table
Parameter Symbol Value Units Sigma Reference Notes
absolute magnitude H 16.8   n/a MPO441657  

523875 (1996 EE6)          Discovered 1996-Mar-11 by Spacewatch at Kitt Peak
Reference: Last Updated: 2019-05-29
Ephemeris | Orbit Diagram | Orbital Elements | Mission Design | Physical Parameters | Discovery Circumstances ]
ABOUT SSD CREDITS/AWARDS PRIVACY/COPYRIGHT GLOSSARY LINKS
FirstGov 2020-Jan-23 05:08 UT
(server date/time)  
NASA Home Page
Site Manager:   Ryan S. Park
Webmaster  Alan B. Chamberlin